FW3311 Weather Reports


time (UTC)temp
C
wind
direction
speed
KPH
gust
KPH
rain 1hr
cm
rain 24hr
cm
rain mn
cm
humidity
%
barometer
mb
20260906191530 24 222 1.6 1.6 0.00 0.00 0.00 71 1019.3
20260906191029 24 111 3.2 3.2 0.00 0.00 0.00 73 1019.4
20260906190528 25 87 3.2 3.2 0.00 0.00 0.00 73 1019.5
20260906190024 25 263 1.6 1.6 0.00 0.00 0.00 69 1019.5
20260906185522 25 271 0.0 1.6 0.00 0.00 0.00 70 1019.8
20260906185022 25 269 0.0 1.6 0.00 0.00 0.00 71 1020.0
20260906184517 25 259 0.0 1.6 0.00 0.00 0.00 72 1019.8
20260906184012 25 262 1.6 1.6 0.00 0.00 0.00 72 1020.1
20260906183509 24 283 0.0 0.0 0.00 0.00 0.00 77 1020.0
20260906183004 25 90 0.0 1.6 0.00 0.00 0.00 70 1019.8
20260906182459 24 234 0.0 1.6 0.00 0.00 0.00 74 1019.8
20260906181954 23 221 1.6 1.6 0.00 0.00 0.00 77 1019.9
20260906181450 23 205 0.0 0.0 0.00 0.00 0.00 77 1020.1
20260906180946 23 79 1.6 1.6 0.00 0.00 0.00 80 1020.1
20260906180441 23 194 3.2 3.2 0.00 0.00 0.00 76 1020.1
20260906175938 23 224 1.6 1.6 0.00 0.00 0.00 77 1020.1
20260906175433 23 122 1.6 1.6 0.00 0.00 0.00 81 1020.4
20260906174932 23 242 1.6 1.6 0.00 0.00 0.00 77 1020.2
20260906174426 23 220 1.6 1.6 0.00 0.00 0.00 79 1020.3
20260906173921 23 237 0.0 1.6 0.00 0.00 0.00 80 1020.2
20260906173416 23 183 1.6 1.6 0.00 0.00 0.00 78 1020.2
20260906172915 23 77 0.0 1.6 0.00 0.00 0.00 83 1020.2
20260906172412 23 252 0.0 0.0 0.00 0.00 0.00 80 1020.2
20260906171907 23 239 1.6 1.6 0.00 0.00 0.00 80 1020.4
20260906171402 23 203 1.6 1.6 0.00 0.00 0.00 80 1020.2
20260906170857 23 239 1.6 1.6 0.00 0.00 0.00 81 1020.2
20260906170353 23 243 0.0 1.6 0.00 0.00 0.00 83 1020.3
20260906165850 22 257 1.6 1.6 0.00 0.00 0.00 82 1020.2
20260906165349 22 158 1.6 1.6 0.00 0.00 0.00 81 1020.1
20260906164844 22 157 1.6 3.2 0.00 0.00 0.00 81 1020.3
20260906164343 22 227 1.6 1.6 0.00 0.00 0.00 83 1020.4
20260906163839 22 256 0.0 0.0 0.00 0.00 0.00 83 1020.5
20260906163335 22 229 1.6 1.6 0.00 0.00 0.00 84 1020.6
20260906162832 22 236 0.0 0.0 0.00 0.00 0.00 82 1020.5
20260906162332 22 238 0.0 0.0 0.00 0.00 0.00 81 1020.6
20260906161827 22 243 0.0 0.0 0.00 0.00 0.00 82 1020.6
20260906161326 22 248 0.0 0.0 0.00 0.00 0.00 84 1020.6
20260906160825 21 156 1.6 1.6 0.00 0.00 0.00 86 1020.7
20260906160319 21 205 0.0 0.0 0.00 0.00 0.00 82 1020.6
20260906155817 21 233 0.0 1.6 0.00 0.00 0.00 85 1020.5
20260906155312 21 76 3.2 3.2 0.00 0.00 0.00 84 1020.4
20260906154808 21 118 0.0 1.6 0.00 0.00 0.00 88 1020.3
20260906154302 21 216 0.0 1.6 0.00 0.00 0.00 88 1020.3
20260906153801 21 199 0.0 1.6 0.00 0.00 0.00 87 1020.4
20260906153255 20 242 0.0 1.6 0.00 0.00 0.00 90 1020.4
20260906152750 20 230 0.0 0.0 0.00 0.00 0.00 90 1020.6
20260906152245 20 182 0.0 0.0 0.00 0.00 0.00 90 1020.6
20260906151744 20 213 0.0 0.0 0.00 0.00 0.00 91 1020.5
20260906151240 20 97 1.6 1.6 0.00 0.00 0.00 90 1020.7
20260906150735 20 220 0.0 0.0 0.00 0.00 0.00 92 1020.7
20260906150231 19 220 0.0 0.0 0.00 0.00 0.00 93 1020.6
20260906145730 19 225 0.0 0.0 0.00 0.00 0.00 95 1020.6
20260906145229 18 225 0.0 0.0 0.00 0.00 0.00 96 1020.5
20260906144724 18 223 0.0 0.0 0.00 0.00 0.00 99 1020.7
20260906144219 17 202 0.0 0.0 0.00 0.00 0.00 99 1020.5
20260906143718 17 226 0.0 0.0 0.00 0.00 0.00 99 1020.7
20260906143216 17 231 0.0 0.0 0.00 0.00 0.00 99 1020.6
20260906142715 17 243 1.6 1.6 0.00 0.00 0.00 99 1020.9
20260906142211 16 99 1.6 1.6 0.00 0.00 0.00 99 1020.7
20260906141709 16 250 0.0 0.0 0.00 0.00 0.00 99 1020.7
20260906141204 16 237 0.0 0.0 0.00 0.00 0.00 99 1020.7
20260906140703 16 232 0.0 0.0 0.00 0.00 0.00 99 1020.8
20260906140159 16 243 0.0 0.0 0.00 0.00 0.00 99 1021.0
20260906135655 16 248 0.0 1.6 0.00 0.00 0.00 99 1020.7
20260906135151 16 244 0.0 0.0 0.00 0.00 0.00 99 1020.9
20260906134647 16 241 0.0 0.0 0.00 0.00 0.00 99 1020.8
20260906134142 16 218 0.0 0.0 0.00 0.00 0.00 99 1020.9
20260906133637 16 251 0.0 0.0 0.00 0.00 0.00 99 1020.8
20260906133132 16 255 0.0 0.0 0.00 0.00 0.00 99 1020.9
20260906132627 15 251 0.0 0.0 0.00 0.00 0.00 99 1020.7
20260906132123 15 264 0.0 0.0 0.00 0.00 0.00 99 1020.8
20260906131618 15 255 0.0 0.0 0.00 0.00 0.00 99 1020.7
20260906131113 15 257 0.0 0.0 0.00 0.00 0.00 99 1020.7
20260906130608 15 265 0.0 0.0 0.00 0.00 0.00 99 1020.7
20260906125555 15 259 0.0 0.0 0.00 0.00 0.00 99 1020.5
20260906125054 15 260 0.0 0.0 0.00 0.00 0.00 99 1020.5
20260906124550 14 254 0.0 0.0 0.00 0.00 0.00 99 1020.5
20260906124045 14 254 0.0 0.0 0.00 0.00 0.00 99 1020.5
20260906123544 14 254 0.0 0.0 0.00 0.00 0.00 99 1020.5
20260906123039 14 254 0.0 0.0 0.00 0.00 0.00 99 1020.6
20260906122533 14 254 0.0 0.0 0.00 0.00 0.00 99 1020.6
20260906122030 13 254 0.0 0.0 0.00 0.00 0.00 99 1020.5
20260906121525 13 253 0.0 0.0 0.00 0.00 0.00 99 1020.6
20260906121021 13 258 0.0 0.0 0.00 0.00 0.00 99 1020.4
20260906120516 13 260 0.0 0.0 0.00 0.00 0.00 99 1020.3
20260906120014 13 248 0.0 0.0 0.00 0.00 0.00 99 1020.2
20260906115513 13 248 0.0 0.0 0.00 0.00 0.00 99 1020.4
20260906115008 13 249 0.0 0.0 0.00 0.00 0.00 99 1020.1
20260906114502 13 249 0.0 0.0 0.00 0.00 0.00 99 1020.2
20260906113959 13 249 0.0 0.0 0.00 0.00 0.00 99 1019.9
20260906113457 13 249 0.0 0.0 0.00 0.00 0.00 99 1020.1
20260906112952 13 249 0.0 0.0 0.00 0.00 0.00 99 1020.0
20260906112448 13 249 0.0 0.0 0.00 0.00 0.00 99 1020.2
20260906111943 13 249 0.0 0.0 0.00 0.00 0.00 99 1020.2
20260906111442 13 249 0.0 0.0 0.00 0.00 0.00 99 1020.1
20260906110938 13 249 0.0 0.0 0.00 0.00 0.00 99 1020.1
20260906110433 13 249 0.0 0.0 0.00 0.00 0.00 99 1019.8
20260906105932 13 249 0.0 0.0 0.00 0.00 0.00 99 1020.0
20260906105428 13 249 0.0 0.0 0.00 0.00 0.00 99 1019.9
20260906104924 14 249 0.0 0.0 0.00 0.00 0.00 99 1019.9
20260906104421 14 248 0.0 0.0 0.00 0.00 0.00 99 1020.0
20260906103916 14 249 0.0 0.0 0.00 0.00 0.00 99 1019.9
20260906103414 14 253 0.0 0.0 0.00 0.00 0.00 99 1019.8
20260906102910 14 251 0.0 0.0 0.00 0.00 0.00 99 1019.9
20260906102409 14 253 0.0 0.0 0.00 0.00 0.00 99 1019.6
20260906101904 14 258 0.0 0.0 0.00 0.00 0.00 99 1019.9
20260906101359 14 256 0.0 0.0 0.00 0.00 0.00 99 1019.8
20260906100855 14 258 0.0 0.0 0.00 0.00 0.00 99 1019.9
20260906100354 14 261 0.0 0.0 0.00 0.00 0.00 99 1020.0
20260906095849 14 260 0.0 0.0 0.00 0.00 0.00 99 1019.9
20260906095344 14 260 0.0 0.0 0.00 0.00 0.00 99 1019.8
20260906094844 14 262 0.0 0.0 0.00 0.00 0.00 99 1019.6
20260906094339 13 262 0.0 0.0 0.00 0.00 0.00 99 1019.9
20260906093835 13 261 0.0 0.0 0.00 0.00 0.00 99 1019.8
20260906093331 13 263 0.0 0.0 0.00 0.00 0.00 99 1019.9
20260906092826 13 263 0.0 0.0 0.00 0.00 0.00 99 1019.8
20260906092326 13 263 0.0 0.0 0.00 0.00 0.00 99 1019.6
20260906091821 13 265 0.0 0.0 0.00 0.00 0.00 99 1019.6
20260906091317 13 265 0.0 0.0 0.00 0.00 0.00 99 1019.9
20260906090814 13 266 0.0 0.0 0.00 0.00 0.00 99 1019.8
20260906090313 13 267 0.0 0.0 0.00 0.00 0.00 99 1019.5
20260906085813 13 267 0.0 0.0 0.00 0.00 0.00 99 1019.6
20260906085311 13 267 0.0 0.0 0.00 0.00 0.00 99 1019.8
20260906084806 13 267 0.0 0.0 0.00 0.00 0.00 99 1019.6
20260906084300 13 267 0.0 0.0 0.00 0.00 0.00 99 1019.8
20260906083755 13 267 0.0 0.0 0.00 0.00 0.00 99 1019.8
20260906083251 13 233 0.0 0.0 0.00 0.00 0.00 99 1019.8
20260906082745 13 267 0.0 0.0 0.00 0.00 0.00 99 1019.5
20260906082240 13 264 0.0 0.0 0.00 0.00 0.00 99 1019.6
20260906081736 13 255 0.0 0.0 0.00 0.00 0.00 99 1019.6
20260906081231 13 264 0.0 0.0 0.00 0.00 0.00 99 1019.4
20260906080727 14 269 0.0 0.0 0.00 0.00 0.00 99 1019.5
20260906080224 14 255 0.0 0.0 0.00 0.00 0.00 99 1019.4
20260906075718 13 265 0.0 0.0 0.00 0.00 0.00 99 1019.3
20260906075212 13 271 0.0 0.0 0.00 0.00 0.00 99 1019.4
20260906074707 13 277 0.0 0.0 0.00 0.00 0.00 99 1019.5
20260906074207 12 277 0.0 0.0 0.00 0.00 0.00 99 1019.8
20260906073702 12 277 0.0 0.0 0.00 0.00 0.00 99 1019.8
20260906073157 12 277 0.0 0.0 0.00 0.00 0.00 99 1019.4
20260906072652 12 277 0.0 0.0 0.00 0.00 0.00 99 1019.3
20260906072148 12 277 0.0 0.0 0.00 0.00 0.00 99 1019.5
20260906071644 12 277 0.0 0.0 0.00 0.00 0.00 99 1019.5
20260906071143 12 277 0.0 0.0 0.00 0.00 0.00 99 1019.5
20260906070640 12 277 0.0 0.0 0.00 0.00 0.00 99 1019.5
20260906070136 12 277 0.0 0.0 0.00 0.00 0.00 99 1019.8
20260906065635 12 277 0.0 0.0 0.00 0.00 0.00 99 1019.5
20260906065131 12 277 0.0 0.0 0.00 0.00 0.00 99 1019.6
20260906064626 13 277 0.0 0.0 0.00 0.00 0.00 99 1019.5
20260906064121 12 277 0.0 0.0 0.00 0.00 0.00 99 1019.6
20260906063616 12 277 0.0 0.0 0.00 0.00 0.00 99 1019.6
20260906063112 13 277 0.0 0.0 0.00 0.00 0.00 99 1019.5
20260906062608 13 277 0.0 0.0 0.00 0.00 0.00 99 1019.4
20260906062106 13 277 0.0 0.0 0.00 0.00 0.00 99 1019.3
20260906061603 13 278 0.0 0.0 0.00 0.00 0.00 99 1019.5
20260906061102 12 278 0.0 0.0 0.00 0.00 0.00 99 1019.2
20260906060559 13 278 0.0 0.0 0.00 0.00 0.00 99 1019.3
20260906060056 13 278 0.0 0.0 0.00 0.00 0.00 99 1019.2
20260906055551 13 278 0.0 0.0 0.00 0.00 0.00 99 1019.1
20260906055046 13 278 0.0 0.0 0.00 0.00 0.00 99 1019.1
20260906054541 12 278 0.0 0.0 0.00 0.00 0.00 99 1019.1
20260906054036 13 277 0.0 0.0 0.00 0.00 0.00 99 1019.0
20260906053533 13 278 0.0 0.0 0.00 0.00 0.00 99 1019.0
20260906053028 13 278 0.0 0.0 0.00 0.00 0.00 99 1019.0
20260906052524 13 278 0.0 0.0 0.00 0.00 0.00 99 1018.9
20260906052021 13 278 0.0 0.0 0.00 0.00 0.00 99 1018.9
20260906051516 13 278 0.0 0.0 0.00 0.00 0.00 99 1018.9
20260906051011 13 278 0.0 0.0 0.00 0.00 0.00 99 1018.8
20260906050512 13 278 0.0 0.0 0.00 0.00 0.00 99 1018.8
20260906050006 13 278 0.0 0.0 0.00 0.00 0.00 99 1018.8
20260906045504 13 278 0.0 0.0 0.00 0.00 0.00 99 1019.0
20260906045000 13 278 0.0 0.0 0.00 0.00 0.00 99 1018.9
20260906044455 13 278 0.0 0.0 0.00 0.00 0.00 99 1018.7
20260906043951 13 278 0.0 0.0 0.00 0.00 0.00 99 1018.8
20260906043447 13 278 0.0 0.0 0.00 0.00 0.00 99 1018.5
20260906042943 13 278 0.0 0.0 0.00 0.00 0.00 99 1018.9
20260906042441 13 278 0.0 0.0 0.00 0.00 0.00 99 1018.9
20260906041936 13 278 0.0 0.0 0.00 0.00 0.00 99 1018.9
20260906041433 13 278 0.0 0.0 0.00 0.00 0.00 99 1019.0
20260906040932 13 278 0.0 0.0 0.00 0.00 0.00 99 1018.9
20260906040427 13 278 0.0 0.0 0.00 0.00 0.00 99 1018.9
20260906035923 13 278 0.0 0.0 0.00 0.00 0.00 99 1018.7
20260906035418 13 278 0.0 0.0 0.00 0.00 0.00 99 1018.8
20260906034913 13 278 0.0 0.0 0.00 0.00 0.00 99 1018.6
20260906034413 13 278 0.0 0.0 0.00 0.00 0.00 99 1018.8
20260906033909 13 278 0.0 0.0 0.00 0.00 0.00 99 1018.6
20260906033409 13 278 0.0 0.0 0.00 0.00 0.00 99 1018.8
20260906032904 14 278 0.0 0.0 0.00 0.00 0.00 99 1018.5
20260906032401 14 278 0.0 0.0 0.00 0.00 0.00 99 1018.7
20260906031855 14 278 0.0 0.0 0.00 0.00 0.00 99 1018.4
20260906031350 14 278 0.0 0.0 0.00 0.00 0.00 99 1018.5
20260906030845 14 278 0.0 0.0 0.00 0.00 0.00 99 1018.5
20260906030341 13 278 0.0 0.0 0.00 0.00 0.00 99 1018.7
20260906025835 14 278 0.0 0.0 0.00 0.00 0.00 99 1018.4
20260906025329 14 278 0.0 0.0 0.00 0.00 0.00 99 1018.5
20260906024828 14 278 0.0 0.0 0.00 0.00 0.00 99 1018.5
20260906024327 14 278 0.0 0.0 0.00 0.00 0.00 99 1018.5
20260906023823 14 278 0.0 0.0 0.00 0.00 0.00 99 1018.4
20260906023319 14 278 0.0 0.0 0.00 0.00 0.00 99 1018.4
20260906022814 14 278 0.0 0.0 0.00 0.00 0.00 99 1018.2
20260906022309 14 278 0.0 0.0 0.00 0.00 0.00 99 1018.3
20260906021805 14 278 0.0 0.0 0.00 0.00 0.00 99 1018.4
20260906021304 15 278 0.0 0.0 0.00 0.00 0.00 99 1018.4
20260906020758 15 278 0.0 0.0 0.00 0.00 0.00 99 1018.4
20260906020253 15 278 0.0 0.0 0.00 0.00 0.00 99 1018.5
20260906015753 15 278 0.0 0.0 0.00 0.00 0.00 99 1018.3
20260906015251 15 278 0.0 0.0 0.00 0.00 0.00 99 1018.4
20260906014746 15 273 0.0 0.0 0.00 0.00 0.00 99 1018.2
20260906014242 15 272 0.0 0.0 0.00 0.00 0.00 99 1018.3
20260906013737 15 274 0.0 0.0 0.00 0.00 0.00 98 1018.3
20260906013237 15 282 0.0 0.0 0.00 0.00 0.00 97 1018.1
20260906012732 15 282 0.0 0.0 0.00 0.00 0.00 96 1018.2
20260906012227 15 282 0.0 0.0 0.00 0.00 0.00 96 1018.1
20260906011723 16 275 0.0 0.0 0.00 0.00 0.00 95 1018.1
20260906011217 16 275 0.0 0.0 0.00 0.00 0.00 95 1018.0
20260906010713 16 274 0.0 0.0 0.00 0.00 0.00 94 1018.1
20260906010209 16 275 0.0 0.0 0.00 0.00 0.00 93 1017.8
20260906005708 16 282 0.0 0.0 0.00 0.00 0.00 92 1017.9
20260906005203 16 255 0.0 0.0 0.00 0.00 0.00 92 1017.9
20260906004701 16 255 0.0 0.0 0.00 0.00 0.00 92 1018.0
20260906004157 16 255 0.0 0.0 0.00 0.00 0.00 91 1018.0
20260906003652 17 255 0.0 0.0 0.00 0.00 0.00 90 1018.1
20260906003147 17 255 0.0 0.0 0.00 0.00 0.00 88 1018.0
20260906002642 17 255 0.0 0.0 0.00 0.00 0.00 87 1018.1
20260906002137 17 255 0.0 0.0 0.00 0.00 0.00 86 1018.1
20260906001632 18 263 0.0 0.0 0.00 0.00 0.00 85 1017.8
20260906001132 18 249 0.0 0.0 0.00 0.00 0.00 84 1017.9
20260906000628 19 249 0.0 0.0 0.00 0.00 0.00 82 1018.0
20260906000123 20 145 0.0 0.0 0.00 0.00 0.00 79 1018.1
20260905235621 21 251 0.0 0.0 0.00 0.00 0.00 77 1018.0
20260905235117 21 251 0.0 0.0 0.00 0.00 0.00 74 1017.8
20260905234612 22 251 0.0 0.0 0.00 0.00 0.00 71 1018.0
20260905234107 22 251 0.0 0.0 0.00 0.00 0.00 71 1018.0
20260905233602 23 250 0.0 1.6 0.00 0.00 0.00 68 1017.9
20260905233056 23 270 0.0 0.0 0.00 0.00 0.00 68 1017.9
20260905232552 23 275 0.0 1.6 0.00 0.00 0.00 69 1017.7
20260905232048 23 83 0.0 0.0 0.00 0.00 0.00 69 1017.9
20260905231543 24 187 1.6 3.2 0.00 0.00 0.00 65 1018.0
20260905231039 23 269 0.0 0.0 0.00 0.00 0.00 67 1017.8
20260905230538 23 271 0.0 0.0 0.00 0.00 0.00 67 1017.8
20260905230037 24 253 1.6 1.6 0.00 0.00 0.00 65 1018.0
20260905225531 23 281 0.0 0.0 0.00 0.00 0.00 66 1018.1
20260905225026 23 236 0.0 0.0 0.00 0.00 0.00 67 1018.0
20260905224521 23 273 0.0 0.0 0.00 0.00 0.00 66 1018.1
20260905224021 23 262 0.0 1.6 0.00 0.00 0.00 66 1018.0
20260905223519 23 251 1.6 1.6 0.00 0.00 0.00 65 1018.0
20260905223014 23 267 0.0 0.0 0.00 0.00 0.00 65 1018.2
20260905222514 23 97 1.6 3.2 0.00 0.00 0.00 67 1018.3
20260905222009 23 291 0.0 0.0 0.00 0.00 0.00 66 1018.1
20260905221506 23 272 0.0 0.0 0.00 0.00 0.00 65 1017.9
20260905221001 23 248 1.6 1.6 0.00 0.00 0.00 65 1017.6
20260905220457 23 338 0.0 0.0 0.00 0.00 0.00 65 1017.9
20260905215955 23 219 0.0 1.6 0.00 0.00 0.00 65 1018.0
20260905215446 24 235 1.6 1.6 0.00 0.00 0.00 63 1018.0
20260905214943 24 250 1.6 1.6 0.00 0.00 0.00 63 1018.2
20260905214438 24 271 0.0 1.6 0.00 0.00 0.00 64 1017.9
20260905213938 24 253 0.0 0.0 0.00 0.00 0.00 64 1017.9
20260905213434 23 250 1.6 3.2 0.00 0.00 0.00 63 1018.0
20260905212929 23 243 0.0 0.0 0.00 0.00 0.00 64 1018.1
20260905212424 22 258 1.6 1.6 0.00 0.00 0.00 66 1017.9
20260905211923 22 258 0.0 1.6 0.00 0.00 0.00 67 1017.9
20260905211419 22 250 0.0 0.0 0.00 0.00 0.00 69 1017.9
20260905210914 23 190 1.6 1.6 0.00 0.00 0.00 67 1018.0
20260905210409 23 195 0.0 1.6 0.00 0.00 0.00 67 1018.0
20260905205908 23 231 0.0 0.0 0.00 0.00 0.00 67 1018.0
20260905205403 23 246 0.0 1.6 0.00 0.00 0.00 67 1018.2
20260905204902 23 230 0.0 1.6 0.00 0.00 0.00 68 1018.1
20260905204358 22 214 1.6 1.6 0.00 0.00 0.00 67 1018.1
20260905203851 23 257 0.0 1.6 0.00 0.00 0.00 65 1018.5
20260905203347 23 238 0.0 1.6 0.00 0.00 0.00 66 1018.1
20260905202842 23 229 0.0 0.0 0.00 0.00 0.00 66 1018.3
20260905202337 23 125 1.6 1.6 0.00 0.00 0.00 70 1018.1
20260905201833 22 212 1.6 1.6 0.00 0.00 0.00 69 1018.1
20260905201328 22 206 1.6 3.2 0.00 0.00 0.00 66 1018.3
20260905200822 22 229 1.6 1.6 0.00 0.00 0.00 65 1018.2
20260905200319 23 232 1.6 1.6 0.00 0.00 0.00 67 1018.1
20260905195816 23 200 1.6 1.6 0.00 0.00 0.00 64 1018.1
20260905195311 22 207 1.6 1.6 0.00 0.00 0.00 68 1018.1
20260905194808 23 320 0.0 0.0 0.00 0.00 0.00 67 1018.0
20260905194306 23 234 1.6 1.6 0.00 0.00 0.00 65 1018.1
20260905193806 22 264 0.0 0.0 0.00 0.00 0.00 67 1018.1
20260905193301 22 204 3.2 4.8 0.00 0.00 0.00 66 1018.1
20260905192756 23 208 1.6 1.6 0.00 0.00 0.00 66 1018.4
20260905192253 23 224 3.2 4.8 0.00 0.00 0.00 64 1018.3
20260905191751 23 64 1.6 3.2 0.00 0.00 0.00 65 1018.5